User: anonymous
Location: Unspecified
(0.0000°N, 0.0000°E)
Time: 18:23:56
(UTC+02:00)
Language:

Cosmos 1933 - Orbit

View from above orbital plane
View from above orbital plane
View from above satellite
View from above satellite

Ground track
Ground track

The orbit data is extracted from the following two-line orbital elements,

1 18958U 88020A   14264.97689740  .00001196  00000-0  91788-4 0  4333
2 18958 082.5328 346.8587 0013574 081.4277 278.8485 15.00836641441499
Epoch (UTC): 21 September 2014 23:26:43
Eccentricity: 0.0013574
inclination: 82.5328°
perigee height: 555 km
apogee height: 574 km
right ascension of ascending node: 346.8587°
argument of perigee: 81.4277°
revolutions per day: 15.00836641
mean anomaly at epoch: 278.8485°
orbit number at epoch: 44149

The dashed part of the orbit path shows where the satellite is in the earth's shadow,  

DLR